,

(GMT )
Al Udeid

Weather History for KQIR - October, 2013

Change the Weather History Date:

Saturday, October 5, 2013

  Actual Average Record
Temperature  
Mean Temperature 91 °F -  
Max Temperature 106 °F - - ()
Min Temperature 76 °F - - ()
Cooling Degree Days 26    
Growing Degree Days 41 (Base 50)    
Moisture  
Dew Point 57 °F    
Average Humidity 47    
Maximum Humidity 90    
Minimum Humidity 6    
Precipitation  
Precipitation 0.00 in - - ()
Sea Level Pressure  
Sea Level Pressure 29.73 in    
Wind  
Wind Speed 7 mph ()    
Max Wind Speed 18 mph    
Max Gust Speed 22 mph    
Visibility 6.2 miles    
Events      
Averages and records for this station are not official NWS values.
T = Trace of Precipitation, MM = Missing Value Source: Averaged Metar Reports

Daily Weather History Graph

Daily Weather History Graph

Search for Another Location

Airport or City:

Astronomy

Oct. 05, 2013 Rise Set
Actual Time 5:28 AM +03 5:17 PM +03
Civil Twilight 5:05 AM +03 5:40 PM +03
Nautical Twilight 4:39 AM +03 6:06 PM +03
Astronomical Twilight 4:12 AM +03 6:33 PM +03
Moon 5:37 AM +03 (10/5) 5:29 PM +03 (10/5)
Length of Visible Light 12h 34m
Length of Day
11h 48m
New Moon, 0% of the Moon is Illuminated
Oct 5
New Moon
Oct 12
First Quarter
Oct 19
Full
Oct 27
Last Quarter
Nov 3
New

Hourly Weather History & Observations

Time (+03) Temp. Heat Index Dew Point Humidity Pressure Visibility Wind Dir Wind Speed Gust Speed Precip Events Conditions
12:55 AM 80.2 °F 84.3 °F 72.5 °F 77% 29.73 in 6.2 mi NW 6.9 mph - N/A   Clear
1:55 AM 79.3 °F - 72.9 °F 80% 29.72 in 6.2 mi WNW 6.9 mph - N/A   Clear
2:55 AM 78.3 °F - 73.2 °F 84% 29.72 in 6.2 mi NW 4.6 mph - N/A   Clear
3:55 AM 77.5 °F - 73.0 °F 86% 29.72 in 6.2 mi NW 5.8 mph - N/A   Clear
4:55 AM 77.4 °F - 73.4 °F 88% 29.73 in 6.2 mi NW 6.9 mph - N/A   Clear
5:55 AM 76.8 °F - 73.8 °F 90% 29.74 in 6.2 mi WNW 6.9 mph - N/A   Clear
6:55 AM 81.0 °F 87.1 °F 75.7 °F 84% 29.76 in 6.2 mi NW 8.1 mph - N/A   Clear
7:55 AM 87.1 °F 96.8 °F 75.6 °F 68% 29.78 in 6.2 mi NW 10.4 mph - N/A   Clear
8:55 AM 93.0 °F 98.4 °F 69.4 °F 46% 29.78 in 6.2 mi NNW 8.1 mph - N/A   Clear
9:55 AM 100.4 °F 99.7 °F 57.4 °F 24% 29.78 in 6.2 mi NNW 8.1 mph - N/A   Clear
10:55 AM 105.1 °F - 34.3 °F 9% 29.75 in 6.2 mi NNW 9.2 mph - N/A   Clear
11:55 AM 106.5 °F - 28.0 °F 6% 29.73 in 6.2 mi NNW 18.4 mph 21.9 mph N/A   Clear
12:55 PM 106.2 °F - 27.0 °F 6% 29.70 in 6.2 mi North 15.0 mph 20.7 mph N/A   Clear
1:55 PM 106.3 °F - 27.1 °F 6% 29.69 in 6.2 mi NNW 10.4 mph - N/A   Clear
2:55 PM 105.6 °F - 26.6 °F 6% 29.69 in 6.2 mi NW 15.0 mph 20.7 mph N/A   Clear
3:55 PM 104.2 °F - 25.5 °F 6% 29.70 in 6.2 mi NNW 13.8 mph - N/A   Clear
4:55 PM 102.2 °F - 24.1 °F 6% 29.70 in 6.2 mi North 12.7 mph - N/A   Clear
5:13 PM 100.4 °F 98.8 °F 55.4 °F 22% 29.70 in 6.2 mi ENE 11.5 mph - N/A   Clear
5:55 PM 95.0 °F 96.0 °F 62.8 °F 34% 29.71 in 6.2 mi ENE 8.1 mph - N/A   Clear
6:55 PM 92.7 °F 96.2 °F 66.9 °F 43% 29.72 in 6.2 mi NE 6.9 mph - N/A   Clear
7:55 PM 89.8 °F 97.0 °F 72.0 °F 56% 29.73 in 6.2 mi NE 5.8 mph - N/A   Clear
8:55 PM 88.5 °F 94.0 °F 70.7 °F 55% 29.73 in 6.2 mi NE 3.5 mph - N/A   Clear
9:55 PM 83.8 °F 87.5 °F 69.3 °F 61% 29.73 in 6.2 mi Calm Calm - N/A   Clear
10:55 PM 80.1 °F 82.1 °F 66.0 °F 62% 29.71 in 6.2 mi WSW 5.8 mph - N/A   Clear
11:55 PM 78.4 °F - 64.0 °F 61% 29.70 in 6.2 mi West 8.1 mph - N/A   Clear